Regional Weather Roundup
Issued by NWS Lake Charles, LA

Home | Current Version | Previous Version | Text Only | Print | Product List | Glossary On
Versions: 1 2 3 4 5 6 7 8 9 10 11 12 13 14 15 16 17 18 19 20 21 22 23 24 25 26 27 28 29 30 31 32 33 34 35 36 37 38 39 40 41 42 43 44 45 46 47 48 49 50
000
ASUS44 KLCH 161910
RWRLCH
RWRLCH
REGIONAL WEATHER ROUNDUP
NATIONAL WEATHER SERVICE LAKE CHARLES LA
200 PM CDT TUE SEP 16 2014

Note: "fair" indicates few or no clouds below 12,000 feet with no
significant weather and/or obstructions to visibility.


ACROSS SOUTHEAST TEXAS

CITY           SKY/WX    TMP DP  RH WIND       PRES   REMARKS
BEAUMONT       CLOUDY    82  75  79 S7        30.02F
BEAUMONT CITY  TSTM      78  75  90 SW9       30.04S
ORANGE         MOCLDY    85  76  74 CALM      30.04F
JASPER         PTSUNNY   90  72  55 N3        30.03F
$$

ACROSS CENTRAL LOUISIANA

CITY           SKY/WX    TMP DP  RH WIND       PRES   REMARKS
LEESVILLE      LGT RAIN  85  75  72 NE5       30.03F
FULLERTON        N/A     91  73  55 VRB3      30.01F
ALEXANDRIA INT MOSUNNY   91  74  57 VRB3      30.01F HX 100
ESLER FIELD    MOSUNNY   92  71  50 E8        30.03F
DERIDDER       MOCLDY    88  74  64 E3        30.04F HAZE
OAKDALE        CLEAR     90  76  63 N3        30.01F HX 101
OPELOUSAS        N/A     89  74  62 CALM      30.01F
$$

ACROSS SOUTHWEST AND SOUTH CENTRAL LOUISIANA

CITY           SKY/WX    TMP DP  RH WIND       PRES   REMARKS
SULPHUR        HVY RAIN  80  77  92 SE12      30.05S
LAKE CHARLES   TSTM      76  74  93 SW6       30.04F
CHENNAULT INT  LGT RAIN  77  73  88 SW9       30.04
CAMERON PHI    PTCLDY    84  75  74 SE5       30.06F
DEQUINCY         N/A     87  74  66 NE6       30.01F
JENNINGS       MOCLDY    88  74  63 SE6       30.02S
LAFAYETTE      PTSUNNY   86  76  71 S12       30.02F
NEW IBERIA     HVY RAIN  78  75  90 S8        30.04S FOG
ABBEVILLE        N/A     76  73  91 S5        30.03F
PATTERSON      PTSUNNY   79  75  89 SW7       30.07S
SALT POINT       N/A     84  76  76 VRB3      30.04F
$$

SELECTED SITES ACROSS THE REGION

CITY           SKY/WX    TMP DP  RH WIND       PRES   REMARKS
HOUSTON BUSH   CLOUDY    84  75  74 SE8       30.00F
HOUSTON HOBBY  PTSUNNY   86  76  71 E6        30.00F
GALVESTON      CLOUDY    85  76  74 S8        30.01F
COLLEGE STAT   PTSUNNY   91  73  55 NE10      30.00F
CONROE         MOSUNNY   92  71  50 CALM      30.00F
HUNTSVILLE     MOSUNNY   92  71  50 VRB3      30.01F
LUFKIN         CLOUDY    89  73  59 VRB5      30.03F
SHREVEPORT     PTSUNNY   89  67  47 E6        30.04F
MONROE         PTSUNNY   86  71  60 N7        30.06F
NATCHEZ MS     PTSUNNY   88  73  62 N6        30.04F
BATON ROUGE    PTSUNNY   83  77  82 W5        30.01F THUNDER
N.O. INTL ARPT PTSUNNY   84  71  65 S5        30.01F
SLIDELL        CLOUDY    84  75  74 S7        30.00F
$$

MARINE REPORTS

STATION/POSITION TIME  TEMP    WIND        PRES    VSBY  WAVE
                       AIR SEA DIR/SP/G                  HT/PER
                 (UTC) (F)     (DEG/KT/KT) (MB)    (MI)  (FT/S)
BUOY 30 S HIGH I 1900   81 85  200/  4/  4 1016.4F         2/ 6
SEA RIM ST PARK  1900   77     220/  7/  9 1017.6F
PORT ARTHUR      1900      83  150/  9/ 13 1017.1S
SABINE PASS N    1900   81 83   10/  7/  9 1017.0F
TEXAS POINT      1900   81 83  190/ 11/ 13 1017.0F
CALCASIEU PASS   1900   83 83  120/  4/  6 1017.9F
LK CHARLES BEACH 1900   76 83              1016.7F
MARSH ISLAND     NOT AVBL
FRESH WATER LOCK 1900   80 84  220/  7/ 10 1017.5F
AMERADA PASS     1900   81 84  190/  3/  6 1017.4F
$$



USA.gov is the U.S. government's official web portal to all federal, state and local government web resources and services.